Powrót do katalogu

USA 561

AktywnyMilitariaVLEO
NORAD 65707·PAYLOAD·🇺🇸 United States

Wystrzelony Sep 22, 2025 z Vandenberg Space Force Base

Loading…

Następne Przeloty (najbliższe 24 godziny)

TLE

NieaktualneSource: Mike McCants

Epoka: Aug 11, 2026, 21:10 UTC

1 65707U 25213D   26223.88257146 0.00000000  00000-0  00000-0 0    07
2 65707  70.0170 247.1162 0003000 224.4453 135.5547 14.96713300    06

Śledź USA 561 w czasie rzeczywistym z AllMySat

Download on the App Store